Powrót do katalogu

USA 74-77 DEB

AktywnyVLEO
NORAD 25591·DEBRIS·🇺🇸 United States

Wystrzelony Nov 8, 1991 z Vandenberg Space Force Base

Loading…

Następne Przeloty (najbliższe 24 godziny)

TLE

NieaktualneSource: Space-Track

Epoka: Dec 31, 1998, 12:32 UTC

1 25591U 91076L   98365.52288517  .10587174  76253-5  12451-2 0  9990
2 25591 064.8500 050.5323 0187071 047.9989 313.7957 16.00963826    12

Śledź USA 74-77 DEB w czasie rzeczywistym z AllMySat

Download on the App Store